EHI
0 0 0 0 0 0 0 0 0 0 0 0 0 0 0 0 0 0 3 10 16 20 18 13 8 5 4 3 1 0 0 0 0 0 0 0 0 0 0 0 0 0 0
0 0 0 0 0 0 0 0 0 0 0 0 0 0 0 0 0 0 1 5 12 17 18 14 9 6 4 3 2 2 1 1 1 1 0 0 0 0 0 0 0 0 0
0 0 0 0 0 0 0 0 0 0 0 0 0 0 0 0 0 0 0 1 4 10 15 15 12 9 7 6 6 6 4 3 3 2 1 1 0 0 0 0 0 0 0
0 0 0 0 0 0 0 0 0 0 0 0 0 0 0 0 0 0 0 0 1 4 8 12 13 13 11 10 9 9 8 6 4 4 3 2 1 0 0 1 1 0 0
1 0 0 0 0 0 0 0 0 0 0 0 0 0 0 0 0 0 0 0 1 1 2 5 9 11 10 10 10 10 9 7 6 6 5 4 3 2 1 2 1 0 0
2 1 0 0 0 0 1 1 0 0 0 0 0 0 0 0 0 0 0 0 1 2 1 1 3 5 6 7 8 9 9 7 6 6 6 5 5 3 2 2 1 0 0
3 3 1 0 1 2 1 1 1 0 1 1 1 0 0 0 0 0 0 0 1 2 2 1 1 2 3 4 5 7 7 5 4 4 5 4 4 4 3 2 1 0 0
4 5 4 2 3 4 3 3 2 2 2 2 1 0 0 0 0 0 0 0 0 1 1 2 2 2 3 3 3 4 4 4 4 4 4 3 3 3 3 2 2 1 0
5 6 7 5 5 6 6 6 4 3 3 3 2 1 0 0 0 0 0 0 0 0 0 1 1 2 3 3 3 3 3 4 4 4 4 4 3 3 3 3 3 2 1
7 9 10 9 7 7 8 7 6 4 4 3 3 2 1 0 0 0 0 0 0 0 0 0 0 1 2 2 2 3 3 3 4 4 4 5 4 3 3 3 3 3 2
10 12 14 12 9 8 7 6 6 6 5 4 4 4 3 2 1 0 0 0 0 0 0 0 0 0 1 1 1 2 3 3 3 3 4 4 4 4 3 3 3 2 2
12 13 14 13 10 9 7 6 6 6 6 6 6 6 5 4 3 1 1 0 0 0 0 0 0 0 0 0 0 1 2 3 3 3 3 3 3 3 3 3 3 2 2
11 12 12 12 11 9 8 8 7 7 7 7 6 6 6 6 4 3 2 1 0 0 0 0 0 0 0 0 1 1 1 2 2 2 1 1 2 2 2 2 2 2 2
10 10 10 11 10 10 9 9 9 9 8 7 7 6 7 6 5 3 3 1 0 0 0 0 0 0 0 0 1 1 1 1 1 1 0 0 1 1 1 1 1 1 1
9 10 11 11 11 10 10 10 9 9 9 9 8 7 8 8 6 3 3 2 1 0 0 0 0 0 0 0 1 1 0 0 0 0 0 0 0 0 0 0 0 0 0
11 13 15 15 14 13 12 11 9 9 10 9 9 9 9 8 6 4 3 3 1 0 0 0 0 0 0 0 0 0 0 0 0 0 0 0 0 0 0 0 0 0 0
14 17 19 19 17 16 15 14 11 10 10 10 10 9 8 7 6 5 4 4 2 1 0 0 1 1 0 0 0 0 0 0 0 0 0 0 0 0 0 0 0 0 0
19 21 23 22 20 19 18 17 15 12 11 11 10 9 7 5 5 6 6 5 3 2 1 1 1 0 0 0 0 0 0 0 0 0 0 0 0 0 0 0 0 0 0
26 27 27 25 22 20 18 18 16 14 12 10 9 8 6 5 4 5 5 4 3 2 1 0 0 0 0 0 0 0 0 0 0 0 0 0 0 0 0 0 0 0 0
32 31 28 25 22 19 16 15 16 14 11 8 6 5 4 3 3 4 4 3 2 1 1 0 0 0 0 0 0 0 0 0 0 0 0 0 0 0 0 0 0 0 0
32 29 26 23 21 18 14 13 12 11 9 7 5 3 2 2 3 4 4 3 2 1 1 0 0 0 0 0 0 0 0 0 0 0 0 0 0 0 0 0 0 0 0
28 26 23 22 21 18 14 10 8 7 7 7 5 3 2 3 4 5 4 3 2 2 1 1 1 1 1 1 1 0 0 0 0 0 0 0 0 0 0 0 0 0 0
25 24 22 20 19 17 11 8 7 6 6 7 6 4 4 4 3 3 4 3 2 1 1 1 1 2 2 2 2 1 0 0 0 0 1 1 0 0 0 0 0 0 0
23 23 21 19 16 12 8 6 6 6 6 6 5 4 4 4 3 2 2 2 2 2 1 0 1 2 2 2 2 1 0 0 0 0 1 1 0 0 0 0 0 0 0
23 23 23 20 16 11 7 4 4 4 5 5 4 3 3 3 3 1 1 1 1 2 1 0 0 1 1 1 1 1 0 0 0 0 1 1 0 0 0 0 0 0 0
23 23 24 23 19 14 8 3 2 3 4 5 4 2 1 2 2 2 1 0 0 1 1 0 0 0 0 0 0 0 0 0 0 0 0 0 0 0 0 0 0 0 0
Wind_Speed
4 3 2 2 2 2 2 2 2 2 2 2 2 3 4 5 4 4 3 10 11 11 12 12 11 11 11 11 10 11 11 10 11 10 9 10 9 9 9 9 8 8 7
4 3 3 2 2 2 2 2 3 2 2 2 2 3 4 4 4 4 3 5 9 10 10 10 10 11 11 11 11 11 10 11 10 10 9 10 9 10 9 9 9 9 8
4 4 3 2 2 2 2 2 2 2 2 2 2 2 3 3 4 4 4 3 4 8 10 10 10 10 11 11 11 11 11 11 10 10 10 9 9 9 9 9 9 9 9
4 3 2 2 2 2 2 2 2 2 1 1 1 1 2 2 4 4 4 3 3 3 6 9 8 8 9 10 11 11 11 11 10 11 11 10 10 10 9 9 9 9 9
4 3 2 2 2 2 1 2 2 2 2 1 1 1 2 2 2 3 3 4 3 3 2 5 8 8 8 9 9 10 11 11 11 11 12 11 10 9 9 9 9 8 8
4 3 2 2 2 2 1 1 2 2 2 2 2 2 1 1 1 2 3 3 3 4 3 3 3 4 7 7 7 8 8 9 10 10 11 12 11 10 9 9 8 8 8
4 3 3 2 2 2 2 2 2 2 1 2 2 2 2 1 0 1 1 1 2 2 3 3 2 2 2 4 5 5 7 7 9 9 10 10 11 10 9 9 9 8 8
4 4 4 3 2 2 2 2 2 2 1 2 3 2 1 2 2 0 0 1 1 1 2 3 3 3 2 1 2 4 4 5 6 7 8 8 8 8 9 8 8 9 8
3 4 4 3 3 3 2 2 3 3 2 1 2 3 3 2 1 2 1 0 1 1 2 2 3 3 3 2 1 3 4 4 4 6 6 6 7 8 8 8 8 9 9
3 4 4 4 3 3 3 3 3 3 3 2 0 1 2 3 2 0 2 1 0 1 1 2 2 2 2 1 1 2 2 2 3 4 5 5 5 6 8 9 9 9 9
3 4 4 4 4 3 3 3 3 3 2 3 2 1 1 1 2 2 1 1 1 1 1 1 1 1 2 2 1 2 2 1 2 2 3 4 5 5 6 8 9 10 9
2 3 4 4 4 3 3 3 3 3 2 2 2 2 2 2 2 2 2 1 1 1 1 0 1 2 2 2 2 3 3 2 2 2 2 2 4 4 5 6 8 8 9
2 3 3 4 3 3 3 3 3 3 3 3 2 2 2 2 2 3 2 1 1 1 0 0 1 1 2 2 2 4 3 3 2 2 2 1 2 3 4 4 5 6 7
3 4 4 4 4 4 4 3 2 2 2 2 2 2 2 2 2 3 3 3 1 0 0 1 1 1 2 2 2 3 2 3 3 2 2 2 2 3 3 4 4 4 5
3 3 4 4 3 3 3 3 2 2 2 2 2 2 2 2 1 2 3 4 4 2 2 2 1 1 2 2 3 2 2 3 3 3 3 2 2 3 4 4 4 4 5
3 4 4 4 3 3 3 3 2 2 3 3 2 2 2 2 2 2 2 2 3 4 2 2 2 2 2 3 4 2 2 4 4 4 3 3 3 4 4 4 5 5 5
4 4 4 4 4 3 3 3 3 3 3 3 2 3 3 2 2 1 2 2 2 3 3 1 1 1 2 2 2 2 1 1 1 3 4 4 5 5 5 5 5 5 5
4 4 4 4 4 4 4 4 4 3 4 3 3 2 3 2 2 2 2 2 2 3 3 3 1 1 2 3 3 3 2 2 1 3 4 5 5 5 5 5 5 5 5
4 3 4 4 4 4 4 4 4 4 4 4 4 3 3 2 2 2 2 2 2 2 2 3 3 1 1 2 2 1 1 1 2 2 3 4 5 5 5 5 5 5 6
4 4 4 4 4 3 3 3 3 3 3 3 3 3 4 4 4 4 3 3 3 3 3 3 3 2 2 2 2 2 1 1 2 2 2 3 4 5 6 6 6 6 6
4 3 3 3 3 3 3 4 4 4 3 2 2 3 3 4 5 4 3 3 4 3 3 3 3 2 2 3 3 3 3 1 1 2 1 2 2 2 3 5 7 8 7
3 3 3 3 3 3 3 4 4 3 3 3 3 3 3 3 3 4 4 5 7 6 6 4 3 4 5 5 4 4 3 2 2 2 3 3 3 3 3 3 7 8 9
2 2 2 2 3 3 4 4 5 4 3 3 3 2 2 1 2 2 2 3 5 7 9 7 6 6 6 6 6 5 5 4 4 3 3 3 3 4 4 5 9 10 10
3 3 2 2 3 3 4 5 5 3 2 2 3 3 3 2 2 2 2 2 3 4 7 6 6 7 6 6 7 7 6 4 2 2 4 3 3 3 4 4 9 12 12
2 3 3 3 3 3 5 5 5 2 2 2 2 3 3 3 3 3 3 3 3 3 4 6 6 6 6 7 7 4 4 3 2 3 3 3 3 2 2 3 6 11 12
3 3 2 3 4 4 5 5 6 3 2 2 2 2 3 3 4 5 4 4 4 4 3 2 3 3 4 6 8 7 6 5 3 3 4 4 3 3 2 3 3 4 6
Wind_Direction
156 161 168 170 177 170 173 180 181 190 187 176 167 149 147 160 166 166 172 181 185 190 191 193 195 196 196 198 200 201 202 201 199 199 201 201 200 203 204 202 200 199 199
153 154 154 159 168 168 177 179 177 168 169 158 152 150 150 154 164 168 175 184 187 187 191 195 200 203 204 204 205 204 206 209 204 204 205 206 205 206 207 208 205 202 200
147 146 144 151 164 158 160 156 141 118 130 130 136 150 149 150 162 174 178 176 192 198 197 198 203 210 211 211 212 209 210 215 211 206 206 206 207 208 209 213 209 206 205
146 142 147 158 153 134 135 139 121 99 97 103 117 145 146 152 166 172 174 179 189 201 204 202 203 210 216 217 216 214 214 212 211 209 209 209 210 208 209 214 214 211 206
151 145 156 168 146 133 146 153 129 134 134 119 124 134 151 165 173 177 177 183 189 194 198 210 209 211 216 219 221 221 220 218 214 213 213 210 207 207 207 209 210 202 195
157 149 157 173 152 137 141 141 137 132 142 143 112 83 108 181 167 174 184 178 187 194 195 202 213 223 219 224 226 226 226 223 214 214 213 212 208 204 205 202 201 196 193
160 152 153 153 145 145 164 157 135 119 109 116 88 52 21 17 134 186 184 166 181 190 187 194 192 196 223 227 233 228 229 226 219 216 216 214 208 202 198 197 193 191 192
172 166 157 158 153 145 142 143 134 129 157 139 127 114 32 352 348 286 193 174 172 165 186 202 192 188 203 217 236 232 235 233 224 212 208 206 204 196 190 190 191 195 195
172 162 160 157 156 154 160 165 153 147 161 195 156 148 155 208 277 321 296 201 167 168 186 198 191 193 199 205 235 244 234 234 228 213 204 200 196 193 189 191 197 197 198
173 164 164 160 158 154 155 170 154 148 144 165 227 195 175 160 158 263 321 307 218 176 187 186 178 180 184 184 200 205 199 207 212 209 206 197 188 189 194 198 200 202 200
181 176 167 156 156 159 162 160 150 149 154 160 175 177 140 121 145 154 224 287 321 304 194 190 175 167 170 172 184 179 168 174 190 191 201 196 193 195 198 205 208 205 200
189 181 167 162 165 166 169 172 164 161 170 168 170 166 163 164 178 166 187 218 239 275 271 187 166 162 171 174 185 175 167 149 147 162 174 188 193 194 200 206 206 202 198
195 202 181 170 172 177 174 169 161 171 174 172 182 189 185 192 173 162 155 179 206 268 308 300 235 177 166 160 175 165 162 148 132 133 140 153 169 180 183 179 183 185 188
199 198 183 179 179 176 174 165 163 178 167 176 190 189 195 212 180 168 165 158 157 292 276 240 276 204 166 155 156 150 156 145 136 127 121 117 138 162 161 158 156 161 166
196 184 175 174 177 173 173 167 173 182 169 183 198 201 211 230 199 185 174 165 160 179 229 231 219 215 175 154 157 150 153 157 149 146 149 145 141 148 145 142 145 141 137
188 173 171 172 178 179 180 175 182 193 182 200 202 202 219 223 204 189 182 179 165 164 191 218 206 187 165 155 154 153 161 154 157 156 156 155 152 145 140 139 138 133 129
187 185 186 180 181 187 184 180 195 193 192 210 213 202 221 213 203 208 186 176 169 154 172 218 192 162 148 151 144 139 137 145 174 167 163 154 147 151 148 144 144 140 134
196 192 189 186 192 192 187 187 198 194 195 207 216 205 228 219 207 213 193 190 187 172 162 181 186 168 167 170 158 158 161 161 176 176 164 157 153 153 150 148 146 145 142
195 195 192 193 198 195 192 196 195 195 201 209 207 202 221 212 219 216 207 199 189 173 156 160 173 170 149 148 133 161 161 159 196 182 172 169 168 166 163 160 157 155 153
182 195 204 198 196 193 191 197 191 185 203 219 214 205 209 209 210 207 199 196 180 158 154 153 158 165 162 152 145 168 191 212 215 200 190 179 179 180 179 176 174 170 167
185 190 188 195 199 194 196 193 192 190 198 214 231 223 218 211 208 203 193 188 172 164 160 162 170 166 175 168 188 186 192 205 233 201 183 203 184 192 196 197 192 186 181
184 178 183 190 200 214 205 195 190 193 194 199 222 240 235 218 214 207 200 187 176 173 176 175 182 191 202 195 180 181 176 174 234 214 178 216 187 207 213 208 205 196 192
173 184 196 190 201 215 187 177 183 175 188 203 210 217 231 224 197 199 210 198 195 192 183 180 188 202 199 195 181 188 192 192 211 197 163 215 202 217 221 213 205 202 200
176 192 203 203 203 208 186 179 178 173 185 207 209 201 202 216 213 198 209 218 222 214 203 195 201 210 205 192 189 193 193 197 218 191 162 195 207 217 220 216 209 204 204
175 196 193 197 207 224 198 185 175 173 194 220 217 205 200 202 224 201 195 216 237 247 227 210 209 213 207 192 176 159 166 172 212 226 187 183 198 205 220 228 222 208 207
190 195 192 199 202 211 203 184 173 172 196 227 246 235 212 204 215 203 196 206 223 237 222 221 225 229 218 205 191 187 185 186 194 222 200 181 184 162 228 240 215 207 208